TimeHST,TemperatureF,Dew PointF,Humidity,Sea Level PressureIn,VisibilityMPH,Wind Direction,Wind SpeedMPH,Gust SpeedMPH,PrecipitationIn,Events,Conditions,WindDirDegrees,DateUTC
12:56 AM,68.0,61.9,81,30.04,10.0,Calm,Calm,-,N/A,,Clear,0,2012-10-30 10:56:00
1:56 AM,68.0,62.6,83,30.10,10.0,Calm,Calm,-,N/A,,Clear,0,2012-10-30 11:56:00
2:56 AM,63.9,61.0,90,30.04,10.0,Calm,Calm,-,N/A,,Clear,0,2012-10-30 12:56:00
3:56 AM,66.9,63.0,87,30.05,10.0,Calm,Calm,-,N/A,,Clear,0,2012-10-30 13:56:00
4:56 AM,68.0,63.9,87,30.06,10.0,Calm,Calm,-,N/A,,Scattered Clouds,0,2012-10-30 14:56:00
5:56 AM,65.8,63.9,93,30.07,10.0,Calm,Calm,-,N/A,,Clear,0,2012-10-30 15:56:00
6:56 AM,68.0,64.9,90,30.08,10.0,Calm,Calm,-,N/A,,Clear,0,2012-10-30 16:56:00
7:56 AM,70.0,65.8,87,30.09,10.0,Calm,Calm,-,N/A,,Clear,0,2012-10-30 17:56:00
8:56 AM,75.9,64.9,69,30.08,10.0,Calm,Calm,-,N/A,,Mostly Cloudy,0,2012-10-30 18:56:00
9:24 AM,75.2,64.4,69,30.14,10.0,Calm,Calm,-,N/A,,Mostly Cloudy,0,2012-10-30 19:24:00
9:56 AM,75.9,64.9,69,30.08,10.0,Calm,Calm,-,0.00,Rain,Light Rain,0,2012-10-30 19:56:00
10:35 AM,80.6,64.4,58,30.12,10.0,Calm,Calm,-,0.00,,Scattered Clouds,0,2012-10-30 20:35:00
10:56 AM,78.8,64.4,61,30.11,10.0,Calm,Calm,-,N/A,,Mostly Cloudy,0,2012-10-30 20:56:00
11:29 AM,80.6,64.4,58,30.09,10.0,Calm,Calm,-,N/A,,Mostly Cloudy,0,2012-10-30 21:29:00
11:56 AM,81.9,64.9,56,30.01,10.0,Calm,Calm,-,N/A,,Mostly Cloudy,0,2012-10-30 21:56:00
12:56 PM,79.0,63.9,60,29.99,10.0,Calm,Calm,-,N/A,,Mostly Cloudy,0,2012-10-30 22:56:00
1:56 PM,78.8,64.4,61,30.04,10.0,Calm,Calm,-,N/A,,Mostly Cloudy,0,2012-10-30 23:56:00
2:56 PM,79.9,64.9,60,29.97,10.0,Calm,Calm,-,N/A,,Partly Cloudy,0,2012-10-31 00:56:00
3:56 PM,79.0,64.9,62,29.98,10.0,Calm,Calm,-,N/A,,Clear,0,2012-10-31 01:56:00
4:56 PM,74.8,63.9,69,30.00,10.0,Calm,Calm,-,N/A,,Clear,0,2012-10-31 02:56:00
5:56 PM,72.0,63.9,76,30.02,10.0,NE,3.5,-,N/A,,Clear,50,2012-10-31 03:56:00
6:56 PM,70.9,63.9,78,30.05,10.0,Calm,Calm,-,N/A,,Clear,0,2012-10-31 04:56:00
7:56 PM,70.9,63.9,78,30.07,10.0,Calm,Calm,-,N/A,,Partly Cloudy,0,2012-10-31 05:56:00
8:56 PM,70.0,64.9,84,30.08,10.0,NE,3.5,-,N/A,,Clear,40,2012-10-31 06:56:00
9:56 PM,68.9,64.9,87,30.08,10.0,Calm,Calm,-,N/A,,Clear,0,2012-10-31 07:56:00
10:56 PM,68.0,63.9,87,30.08,10.0,Calm,Calm,-,N/A,,Clear,0,2012-10-31 08:56:00
11:56 PM,66.9,63.0,87,30.06,10.0,Calm,Calm,-,N/A,,Clear,0,2012-10-31 09:56:00